Regional Weather Roundup
Issued by NWS Jackson, KY

Home | Current Version | Previous Version | Text Only | Print | Product List | Glossary Off
Versions: 1 2 3 4 5 6 7 8 9 10 11 12 13 14 15 16 17 18 19 20 21 22 23 24 25 26 27 28 29 30 31 32 33 34 35 36 37 38 39 40 41 42 43 44 45 46 47 48 49 50

000
ASUS43 KJKL 300410
RWRJKL

EAST KENTUCKY HOURLY WEATHER ROUNDUP
NATIONAL WEATHER SERVICE JACKSON KY
1200 AM EDT TUE JUN 30 2015

NOTE: "FAIR" INDICATES FEW OR NO CLOUDS BELOW 12,000 FEET WITH
NO SIGNIFICANT WEATHER AND/OR OBSTRUCTIONS TO VISIBILITY.

* THESE REPORTS ARE NOT UNDER NWS QUALITY CONTROL AND MAY NOT
  REPORT WEATHER SUCH AS PRECIPITATION AND FOG.

KYZ079-080-083-085-087-088-110-112-115-119-120-300500
...EASTERN KENTUCKY...

CITY           SKY/WX    TMP DP  RH WIND       PRES   REMARKS
JACKSON        CLOUDY    68  64  87 VRB3      29.92S
LONDON         CLOUDY    68  63  84 S6        29.94R
SOMERSET*      PTCLDY    64  64 100 CALM      29.94S
MONTICELLO*    CLOUDY    67  67 100 CALM      29.96R
MIDDLESBORO*   CLOUDY    66  66  99 CALM      29.97R
HARLAN APT*      N/A     66  66 100 CALM      29.96S
HAZARD APT*    PTCLDY    68  66  94 SW5       29.92F
BLACK MTN*       N/A     61  61 100 SW7         N/A
PIKEVILLE APT* MOCLDY    68  64  88 CALM      29.92S
BIG SANDY*     CLOUDY    71  64  80 SW6       29.90F
MOREHEAD APT*  CLOUDY    68  64  88 SW6       29.90S
$$

KYZ035-036-041-042-044-050-067-078-099-300500
...CENTRAL KENTUCKY...

CITY           SKY/WX    TMP DP  RH WIND       PRES   REMARKS
MT STERLING*   MOCLDY    66  64  94 W5        29.90S
FLEMING/MASON* CLOUDY   N/A N/A N/A S3        29.88S
DANVILLE*      MOCLDY    68  64  88 SW6       29.90F
RICHMOND*      MOCLDY    68  63  83 SW5       29.90R
LEXINGTON      PTCLDY    67  65  93 SW7       29.88F
FRANKFORT      CLEAR     68  66  93 W5        29.86S
$$

KYZ091>093-OHZ055-061-077-WVZ005-015-034-035-042-300500
...SOUTHERN OHIO/WEST VIRGINIA...

CITY           SKY/WX    TMP DP  RH WIND       PRES   REMARKS
COVINGTON      PTCLDY    68  65  90 SW6       29.85R
COLUMBUS       MOCLDY    64  62  93 CALM      29.82F
DAYTON         MOCLDY    62  61  96 CALM      29.85S FOG
WILMINGTON     CLOUDY    66  64  93 SW3       29.85R
HUNTINGTON     CLOUDY    67  65  93 W3        29.85F
CHARLESTON     CLOUDY    67  65  93 CALM      29.87S
PINEVILLE*     CLOUDY    67  65  91 MISG      29.99F
BECKLEY        CLOUDY    69  56  62 S8        29.97F
BLUEFIELD      CLOUDY    70  56  61 SW6       30.01F
$$

VAZ002-007-008-TNZ017-027-036-066-071-300500
...SOUTHWEST VIRGINIA/EAST TENNESSEE...

CITY           SKY/WX    TMP DP  RH WIND       PRES   REMARKS
WISE*          CLOUDY    66  64  94 SW13      30.01R
JONESVILLE*      N/A    N/A N/A N/A MISG        N/A
ABINGDON*      MOCLDY    72  63  73 W8        29.99S
BRISTOL        MOCLDY    69  63  81 SW8       29.96F
KNOXVILLE      LGT RAIN  73  65  75 N6        29.94S
OAK RIDGE      LGT RAIN  66  62  87 SE7       29.98F FOG
CROSSVILLE     CLOUDY    69  66  90 NE5       30.00S
NASHVILLE      CLOUDY    72  71  97 S3        29.91F
$$

...KEY TO REMARKS...
VSB - VISIBILITY IN MILES
WCI - WIND CHILL INDEX
HX  - HEAT INDEX

$$


USA.gov is the U.S. government's official web portal to all federal, state and local government web resources and services.